Rush City, MN

3:17 AM CDT on May 21, 2018 (GMT -0500)
Rush City Regional

Weather History for KROS - March, 2013

Change the Weather History Date:

Wednesday, March 6, 2013

  Actual Average (KCBG) Record (KCBG)
Temperature  
Mean Temperature 16 °F -  
Max Temperature 27 °F 33 °F 62 °F (2017)
Min Temperature 4 °F 12 °F -16 °F (1989)
Degree Days  
Heating Degree Days 50    
Moisture  
Dew Point 11 °F    
Average Humidity 81    
Maximum Humidity 92    
Minimum Humidity 59    
Precipitation  
Precipitation 0.05 in - - ()
Sea Level Pressure  
Sea Level Pressure 30.36 in    
Wind  
Wind Speed 4 mph (NW)    
Max Wind Speed 10 mph    
Max Gust Speed -    
Visibility 10 miles    
Events      
Averages and records for this station are not official NWS values.
T = Trace of Precipitation, MM = Missing Value Source: NWS Daily Summary

Daily Weather History Graph

Daily Weather History Graph

Search for Another Location

Airport or City:

Astronomy

Mar. 06, 2013 Rise Set
Actual Time 6:40 AM CST 6:05 PM CST
Civil Twilight 6:11 AM CST 6:35 PM CST
Nautical Twilight 5:36 AM CST 7:10 PM CST
Astronomical Twilight 5:02 AM CST 7:44 PM CST
Moon 3:03 AM CST (3/6) 12:35 PM CST (3/6)
Length of Visible Light 12h 24m
Length of Day
11h 25m
Waning Crescent, 29% of the Moon is Illuminated
Mar 6
Waning Crescent
Mar 11
New
Mar 19
First Quarter
Mar 27
Full
Apr 2
Last Quarter

Hourly Weather History & Observations

Time (CST) Temp. Windchill Dew Point Humidity Pressure Visibility Wind Dir Wind Speed Gust Speed Precip Events Conditions
12:15 AM 19.9 °F 13.4 °F 17.2 °F 89% 30.29 in 10.0 mi NNW 4.6 mph - N/A   Overcast
12:35 AM 18.7 °F 13.5 °F 16.0 °F 89% 30.29 in 10.0 mi NNW 3.5 mph - N/A   Scattered Clouds
12:54 AM 18.3 °F 11.5 °F 15.6 °F 89% 30.30 in 10.0 mi NNW 4.6 mph - N/A   Mostly Cloudy
1:15 AM 18.0 °F 11.1 °F 15.1 °F 88% 30.31 in 10.0 mi NW 4.6 mph - N/A   Mostly Cloudy
1:35 AM 16.7 °F 8.3 °F 14.0 °F 89% 30.32 in 10.0 mi NW 5.8 mph - N/A   Scattered Clouds
1:55 AM 15.8 °F 7.2 °F 13.5 °F 90% 30.33 in 10.0 mi NW 5.8 mph - N/A   Clear
2:15 AM 15.4 °F 8.1 °F 13.1 °F 90% 30.33 in 10.0 mi NNW 4.6 mph - N/A   Clear
2:35 AM 14.9 °F 7.5 °F 12.9 °F 92% 30.33 in 10.0 mi NW 4.6 mph - N/A   Clear
2:54 AM 13.6 °F 7.7 °F 11.3 °F 90% 30.33 in 10.0 mi NW 3.5 mph - N/A   Clear
3:15 AM 12.9 °F 6.9 °F 10.9 °F 92% 30.33 in 10.0 mi NW 3.5 mph - N/A   Clear
3:35 AM 12.2 °F 6.1 °F 9.9 °F 90% 30.34 in 10.0 mi NW 3.5 mph - N/A   Clear
3:55 AM 12.9 °F 5.2 °F 10.9 °F 92% 30.34 in 10.0 mi NW 4.6 mph - N/A   Clear
4:15 AM 12.6 °F 6.5 °F 10.2 °F 90% 30.34 in 10.0 mi NW 3.5 mph - N/A   Clear
4:35 AM 10.4 °F - 7.9 °F 90% 30.35 in 10.0 mi Calm Calm - N/A   Clear
4:55 AM 9.3 °F 2.8 °F 6.8 °F 89% 30.35 in 10.0 mi NW 3.5 mph - N/A   Clear
5:15 AM 9.1 °F - 6.6 °F 89% 30.35 in 10.0 mi Calm Calm - N/A   Clear
5:35 AM 6.4 °F - 3.6 °F 88% 30.36 in 10.0 mi Calm Calm - N/A   Scattered Clouds
5:55 AM 6.4 °F -0.5 °F 3.7 °F 89% 30.37 in 10.0 mi WNW 3.5 mph - N/A   Scattered Clouds
6:15 AM 6.1 °F -0.9 °F 3.4 °F 89% 30.37 in 10.0 mi WNW 3.5 mph - N/A   Scattered Clouds
6:35 AM 4.6 °F -2.5 °F 1.8 °F 88% 30.38 in 10.0 mi West 3.5 mph - N/A   Scattered Clouds
6:55 AM 4.5 °F -2.7 °F 1.4 °F 87% 30.39 in 10.0 mi WNW 3.5 mph - N/A   Scattered Clouds
7:15 AM 5.2 °F -1.9 °F 2.3 °F 88% 30.39 in 10.0 mi WNW 3.5 mph - N/A   Scattered Clouds
7:35 AM 7.7 °F 1.0 °F 5.0 °F 89% 30.40 in 10.0 mi WNW 3.5 mph - N/A   Scattered Clouds
7:55 AM 11.1 °F 4.9 °F 8.8 °F 90% 30.40 in 10.0 mi NW 3.5 mph - N/A   Clear
8:15 AM 13.1 °F 7.1 °F 10.9 °F 91% 30.40 in 10.0 mi NW 3.5 mph - N/A   Clear
8:35 AM 14.5 °F 7.1 °F 12.4 °F 91% 30.41 in 10.0 mi NW 4.6 mph - N/A   Clear
8:55 AM 16.2 °F 6.5 °F 14.0 °F 91% 30.41 in 10.0 mi NW 6.9 mph - N/A   Mostly Cloudy
9:15 AM 16.7 °F 8.3 °F 14.7 °F 92% 30.41 in 10.0 mi NW 5.8 mph - N/A   Overcast
9:35 AM 17.6 °F 6.4 °F 15.4 °F 91% 30.41 in 10.0 mi NNW 9.2 mph - N/A   Overcast
9:55 AM 18.3 °F 6.6 °F 14.9 °F 86% 30.41 in 10.0 mi North 10.4 mph - N/A   Overcast
10:15 AM 19.4 °F 8.6 °F 14.2 °F 80% 30.41 in 10.0 mi North 9.2 mph - N/A   Overcast
10:35 AM 19.9 °F 9.3 °F 13.6 °F 77% 30.41 in 10.0 mi NNW 9.2 mph - N/A   Overcast
10:55 AM 20.5 °F 9.2 °F 13.5 °F 74% 30.40 in 10.0 mi North 10.4 mph - N/A   Overcast
11:15 AM 21.2 °F 11.7 °F 13.8 °F 73% 30.40 in 10.0 mi North 8.1 mph - N/A   Overcast
11:35 AM 21.4 °F 13.8 °F 14.0 °F 73% 30.39 in 10.0 mi North 5.8 mph - N/A   Overcast
11:55 AM 22.1 °F 12.8 °F 14.4 °F 72% 30.39 in 10.0 mi NW 8.1 mph - N/A   Overcast
12:15 PM 22.8 °F 15.5 °F 14.0 °F 69% 30.38 in 10.0 mi North 5.8 mph - N/A   Overcast
12:35 PM 22.6 °F 18.0 °F 14.0 °F 69% 30.37 in 10.0 mi NNW 3.5 mph - 0.01 in   Overcast
12:55 PM 24.8 °F 19.1 °F 14.0 °F 64% 30.37 in 10.0 mi NNW 4.6 mph - 0.01 in   Mostly Cloudy
1:15 PM 23.9 °F 18.0 °F 14.2 °F 66% 30.37 in 10.0 mi NW 4.6 mph - N/A   Mostly Cloudy
1:35 PM 25.5 °F 18.7 °F 14.4 °F 63% 30.37 in 10.0 mi WNW 5.8 mph - N/A   Scattered Clouds
1:55 PM 25.7 °F 20.1 °F 14.4 °F 62% 30.35 in 10.0 mi NW 4.6 mph - N/A   Clear
2:14 PM 25.9 °F 20.3 °F 14.2 °F 61% 30.35 in 10.0 mi West 4.6 mph - N/A   Clear
2:35 PM 26.1 °F 20.5 °F 14.0 °F 60% 30.35 in 10.0 mi WNW 4.6 mph - 0.02 in   Clear
2:55 PM 27.0 °F 23.0 °F 14.9 °F 60% 30.35 in 10.0 mi West 3.5 mph - 0.02 in   Clear
3:14 PM 26.6 °F 22.6 °F 14.5 °F 60% 30.34 in 10.0 mi West 3.5 mph - N/A   Clear
3:35 PM 26.4 °F - 14.5 °F 61% 30.34 in 10.0 mi Calm Calm - N/A   Clear
3:55 PM 27.0 °F 23.0 °F 14.2 °F 59% 30.33 in 10.0 mi West 3.5 mph - 0.02 in   Clear
4:14 PM 26.6 °F 22.6 °F 14.0 °F 59% 30.33 in 10.0 mi WNW 3.5 mph - N/A   Clear
4:35 PM 26.2 °F - 14.0 °F 60% 30.33 in 10.0 mi Calm Calm - N/A   Clear
4:55 PM 25.9 °F 21.7 °F 13.8 °F 60% 30.33 in 10.0 mi WSW 3.5 mph - N/A   Clear
5:14 PM 24.8 °F 20.5 °F 13.6 °F 63% 30.34 in 10.0 mi West 3.5 mph - N/A   Clear
5:35 PM 24.6 °F 20.3 °F 13.8 °F 64% 30.34 in 10.0 mi WSW 3.5 mph - N/A   Clear
5:55 PM 23.0 °F 18.4 °F 12.9 °F 65% 30.33 in 10.0 mi West 3.5 mph - N/A   Clear
6:15 PM 20.3 °F - 12.0 °F 70% 30.33 in 10.0 mi Calm Calm - N/A   Clear
6:35 PM 18.1 °F - 11.8 °F 76% 30.33 in 10.0 mi Calm Calm - N/A   Clear
6:55 PM 16.5 °F - 10.8 °F 78% 30.34 in 10.0 mi Calm Calm - N/A   Clear
7:15 PM 14.2 °F - 10.2 °F 84% 30.34 in 10.0 mi Calm Calm - N/A   Clear
7:35 PM 14.7 °F 7.3 °F 11.1 °F 86% 30.34 in 10.0 mi West 4.6 mph - N/A   Clear
7:55 PM 12.0 °F - 8.4 °F 85% 30.34 in 10.0 mi Calm Calm - N/A   Clear
8:15 PM 12.9 °F 6.9 °F 10.0 °F 88% 30.34 in 10.0 mi West 3.5 mph - N/A   Clear
8:35 PM 13.3 °F 7.3 °F 10.8 °F 90% 30.34 in 10.0 mi West 3.5 mph - N/A   Clear
8:55 PM 13.1 °F 5.4 °F 10.6 °F 90% 30.34 in 10.0 mi West 4.6 mph - N/A   Clear
9:15 PM 10.2 °F - 7.9 °F 90% 30.34 in 10.0 mi Calm Calm - N/A   Clear
9:35 PM 10.4 °F - 7.7 °F 89% 30.34 in 10.0 mi Calm Calm - N/A   Clear
9:55 PM 9.0 °F - 6.6 °F 90% 30.35 in 10.0 mi Calm Calm - N/A   Clear
10:15 PM 9.9 °F - 7.7 °F 91% 30.35 in 10.0 mi Calm Calm - N/A   Scattered Clouds
10:35 PM 8.6 °F 2.0 °F 5.9 °F 89% 30.35 in 10.0 mi WNW 3.5 mph - N/A   Scattered Clouds
10:55 PM 6.1 °F -0.9 °F 2.8 °F 87% 30.35 in 10.0 mi West 3.5 mph - N/A   Clear
11:15 PM 7.0 °F - 4.3 °F 89% 30.35 in 7.0 mi Calm Calm - N/A   Scattered Clouds
11:35 PM 6.8 °F - 3.9 °F 88% 30.35 in 10.0 mi Calm Calm - N/A   Scattered Clouds
11:55 PM 4.5 °F - 1.4 °F 87% 30.36 in 10.0 mi Calm Calm - N/A   Scattered Clouds